Tracking 30995 objects as of 5-Jul-2025
HD Live streaming from Space Station
objects crossing your sky now

STARLINK-6247

Track STARLINK-6247 now!
10-day predictions
STARLINK-6247 is classified as:


NORAD ID: 57086
Int'l Code: 2023-088AQ
Perigee: 565.4 km
Apogee: 567.0 km
Inclination: 43.0 °
Period: 95.8 minutes
Semi major axis: 6937 km
RCS: Unknown
Launch date: June 22, 2023
Source: United States (US)
Launch site: AIR FORCE WESTERN TEST RANGE (AFWTR)
Your satellite tracking list
ARASE (ERG)
Track 1 satellite(s)




NASA's NSSDC Master Catalog

Two Line Element Set (TLE):
1 57086U 23088AQ  25185.82885513 -.00000676  00000-0 -34971-4 0  9997
2 57086  43.0049   1.3867 0001157 275.7634  84.3077 15.02534115113237
Source of the keplerian elements: AFSPC